Temperature
16 16 16 16 16 16 16 16 16 17 17 17 16 16 16 15 15 15 15 15 15 15 15 15 15 15 15 15 15 15 14 14 14 14 14 14 14 14
16 16 16 15 16 16 16 15 16 16 16 16 16 16 15 15 15 15 15 15 15 15 15 15 15 14 14 14 14 14 14 14 14 14 14 14 14 14
15 15 15 15 15 15 15 15 15 15 16 16 15 15 15 15 15 15 14 14 14 15 15 15 15 14 14 14 14 14 14 14 14 14 14 14 14 14
15 15 15 15 15 15 15 15 15 15 15 15 15 15 15 15 14 14 14 14 14 14 14 14 14 14 14 14 14 14 14 13 13 14 14 14 14 14
14 14 14 14 14 14 14 14 14 14 14 15 15 15 14 14 14 14 14 14 14 14 14 14 14 14 14 14 14 13 13 13 13 13 13 14 14 14
14 14 14 14 14 14 14 14 14 14 14 14 15 15 14 14 14 14 14 14 14 14 14 14 14 14 13 13 13 13 13 13 13 13 13 13 13 13
14 14 14 14 13 13 13 13 13 13 14 14 14 14 14 14 14 14 14 13 13 13 13 13 13 13 13 13 13 13 13 13 13 13 13 13 13 13
13 13 13 13 13 13 13 13 13 13 13 13 14 14 13 13 13 13 13 13 13 13 13 13 13 13 13 13 13 13 13 13 12 12 12 12 12 12
13 13 13 13 13 13 13 13 13 12 12 12 13 13 13 13 13 13 13 13 13 13 13 13 13 13 13 12 13 13 12 12 12 12 12 12 12 12
13 12 12 12 12 12 12 12 12 12 12 12 12 12 12 12 12 12 12 12 12 12 12 12 13 13 12 12 12 12 12 12 12 12 12 12 12 12
12 12 12 12 12 12 12 12 12 12 12 12 12 12 12 12 12 12 12 12 13 13 12 12 12 12 12 12 12 12 12 12 12 12 11 11 11 11
12 12 12 12 12 12 12 11 11 11 11 11 12 12 12 12 12 12 11 12 12 12 12 12 12 12 12 12 12 11 11 11 11 11 11 11 11 11
12 12 12 12 12 12 11 11 11 11 11 11 11 11 11 12 11 11 11 11 12 12 12 11 11 11 12 11 11 11 11 11 11 11 11 11 11 11
11 11 11 12 11 11 11 11 11 11 11 11 11 11 11 11 11 11 11 11 11 11 11 11 11 11 11 11 11 11 11 11 11 11 11 11 11 11
11 11 11 11 11 11 11 11 11 11 11 11 11 11 11 11 11 11 11 11 11 11 11 11 11 11 11 11 11 11 10 10 10 10 10 10 11 11
11 11 11 11 10 10 10 10 10 10 10 10 10 11 11 11 11 11 11 10 10 10 10 10 10 10 10 10 10 10 10 10 10 10 10 10 10 10
11 10 10 10 10 10 10 10 10 10 10 10 10 10 10 10 10 10 10 10 10 10 10 10 10 10 10 10 10 10 10 10 10 10 10 10 10 10
10 10 10 10 10 10 10 10 10 9 9 9 9 9 10 10 10 10 10 10 10 10 10 10 10 9 9 9 9 10 10 10 10 10 10 10 10 10
10 10 10 10 10 10 10 9 9 9 9 9 9 9 9 9 9 9 9 9 9 10 10 10 9 9 9 10 10 9 9 9 9 9 9 10 10 10
10 10 10 9 9 9 9 9 9 9 9 9 9 9 9 9 9 9 9 9 9 9 9 9 9 9 9 9 9 9 9 9 9 9 9 9 9 9
9 9 9 9 9 9 9 8 8 8 9 8 8 8 9 9 9 9 9 9 9 9 9 9 9 9 9 9 9 9 9 9 9 9 9 9 9 9
9 9 9 9 9 8 8 8 8 8 8 8 8 8 8 8 8 8 9 9 9 9 9 9 9 9 9 9 9 9 9 9 8 9 9 9 9 9
8 8 8 8 8 8 8 8 8 8 8 8 8 8 8 8 8 8 8 8 9 9 9 9 9 9 9 9 9 9 9 8 8 8 8 9 9 9
Wind_Speed
3 3 4 4 4 5 5 5 6 6 5 4 3 3 3 3 3 5 5 6 8 8 8 8 7 7 6 6 6 7 8 8 8 9 10 10 10 10
3 3 4 4 4 4 5 5 5 6 6 4 4 4 4 4 3 5 6 6 8 8 8 8 8 7 7 7 7 7 7 7 8 9 10 10 10 10
3 3 4 5 4 4 4 4 5 5 6 5 5 4 4 5 4 5 5 6 5 9 8 8 8 8 8 7 7 7 7 8 8 8 9 10 10 10
4 4 4 4 4 5 4 5 5 5 6 7 6 5 5 5 5 6 5 5 5 6 8 9 9 8 8 7 7 7 7 7 7 7 9 9 10 10
4 4 5 5 5 4 5 5 5 5 5 6 7 5 5 4 5 6 5 5 6 5 8 9 9 9 8 8 7 6 6 7 7 6 7 8 8 9
4 5 5 5 5 5 5 5 6 6 6 7 6 5 4 4 5 5 5 5 6 5 4 5 8 10 10 9 8 6 6 6 6 6 6 6 6 7
5 5 5 5 5 5 5 5 6 6 7 6 6 6 5 5 5 5 6 5 5 5 5 5 5 5 6 9 8 7 7 7 7 6 6 5 5 6
5 5 5 5 4 5 6 6 7 8 8 7 7 6 6 7 6 6 6 6 5 3 5 5 4 4 4 4 6 8 8 8 8 7 6 6 5 5
5 5 5 4 4 5 5 7 7 7 8 9 9 8 7 7 7 8 6 6 6 4 5 6 4 5 4 3 6 8 9 9 9 8 8 7 6 6
5 5 5 5 4 5 6 6 7 6 6 7 7 7 7 6 7 7 7 7 7 4 4 5 4 4 4 3 7 9 10 9 9 8 8 7 6 5
4 4 5 4 3 5 6 6 7 6 5 5 5 6 6 6 7 6 6 6 6 4 4 5 4 4 4 3 5 10 10 10 9 9 9 8 7 6
3 3 3 3 3 4 6 6 7 7 7 5 4 5 5 5 6 6 6 6 6 4 2 4 4 3 3 3 2 4 6 8 9 9 9 8 7 6
4 4 3 1 3 5 7 6 7 8 7 6 5 4 4 4 4 4 5 6 6 5 2 3 4 4 4 3 2 3 3 3 5 6 8 8 7 6
5 4 4 2 5 7 6 5 7 7 5 5 4 4 4 4 3 4 4 4 5 5 3 3 4 4 4 4 3 3 3 3 3 3 4 7 7 7
5 5 6 6 6 5 4 6 6 4 4 4 5 4 4 4 4 3 4 4 4 4 4 4 5 4 4 4 3 3 3 2 3 3 3 3 4 4
5 4 6 6 5 4 4 4 4 3 4 5 5 5 5 4 4 4 4 4 4 3 3 4 4 4 4 4 3 3 2 2 2 3 3 3 3 4
5 4 3 3 3 3 3 3 3 3 4 5 5 5 5 4 4 4 4 4 4 4 2 2 3 3 4 4 4 3 2 2 2 2 2 3 3 4
6 4 4 4 4 4 4 4 3 4 4 5 5 5 5 4 4 4 4 4 4 4 3 2 2 2 3 2 2 3 3 2 2 2 2 3 3 3
4 4 4 5 5 5 4 4 4 4 4 5 4 5 5 4 4 4 4 4 4 4 3 2 2 3 3 3 2 2 3 2 2 2 3 3 2 2
3 4 4 5 5 5 5 4 4 4 4 4 5 5 4 4 4 4 4 5 4 4 3 3 3 3 4 3 1 1 2 3 3 3 2 2 1 2
4 4 4 4 4 4 5 5 5 4 4 4 5 5 5 4 4 4 4 5 5 4 4 3 2 2 2 2 2 1 1 1 0 1 2 2 2 2
4 4 4 4 4 4 4 4 4 4 4 4 5 5 4 4 5 5 5 5 4 4 4 3 2 3 3 3 3 2 1 2 3 3 2 1 2 2
3 4 4 4 4 4 4 5 5 4 4 5 5 4 4 5 5 5 5 5 4 4 3 2 2 2 3 3 3 2 2 3 2 2 1 1 2 2
Wind_Direction
282 273 274 282 275 276 276 274 280 284 281 272 266 269 266 262 251 250 249 208 214 219 221 226 226 224 223 223 228 230 231 234 234 231 230 230 232 232
298 302 293 286 286 278 273 272 273 277 283 286 274 268 280 274 247 263 257 212 208 214 220 224 225 222 223 224 228 233 231 229 232 230 227 228 231 229
287 290 295 299 290 286 279 276 274 273 273 280 281 280 281 279 274 267 257 250 225 203 213 217 218 220 223 223 225 230 229 225 225 228 227 228 228 227
280 285 286 285 289 290 288 282 280 278 274 279 281 279 276 272 270 266 262 254 254 197 205 212 212 216 217 219 220 222 223 222 222 226 226 226 225 224
279 280 282 282 281 287 286 283 279 275 274 273 277 280 277 275 275 268 266 267 261 216 204 205 207 210 211 211 210 213 215 217 219 223 226 223 222 222
280 281 282 282 281 283 277 277 281 283 274 273 278 278 275 273 268 267 267 262 268 259 245 228 206 205 207 206 205 207 208 208 211 214 219 221 216 216
276 277 279 289 292 288 289 290 285 282 280 279 279 280 279 282 274 270 272 275 264 259 257 245 225 224 209 207 204 207 207 204 203 207 208 210 208 209
276 278 275 263 259 255 271 285 289 281 287 286 281 284 284 281 283 277 277 277 273 256 268 262 244 241 229 218 188 193 202 201 198 201 201 200 201 207
277 280 282 292 284 283 274 264 267 270 272 279 282 285 287 288 286 279 279 281 284 281 268 267 252 251 239 198 174 187 193 197 197 197 198 197 197 203
279 279 282 288 290 296 283 278 277 279 274 271 280 283 285 289 283 279 281 275 271 266 258 266 257 254 247 210 177 187 191 192 195 198 197 197 199 205
282 281 276 278 314 307 284 280 283 284 262 263 284 287 296 284 280 278 275 271 269 257 241 259 263 264 251 232 189 187 189 189 192 196 199 201 204 211
283 283 283 295 308 296 282 280 280 288 294 287 275 265 265 258 248 256 267 270 278 266 240 253 259 262 258 240 215 189 195 190 189 192 197 203 207 216
294 293 296 301 288 278 277 278 283 284 279 278 274 271 267 263 261 255 260 265 272 272 250 244 260 255 262 266 237 215 206 195 194 200 198 196 203 220
296 304 320 304 273 269 271 280 276 273 272 274 274 275 273 276 279 272 263 268 275 277 285 266 262 260 266 271 254 228 214 206 202 203 203 187 198 213
305 318 302 271 264 260 250 259 264 268 274 274 277 280 284 285 282 269 257 253 260 262 255 250 259 256 258 264 262 247 233 219 210 199 190 190 197 206
296 285 251 247 264 288 275 264 276 288 287 282 286 289 288 285 281 276 267 259 259 257 247 243 241 249 252 260 265 257 242 221 206 209 204 199 200 207
298 288 298 296 290 296 295 294 291 290 284 286 290 292 292 287 288 292 284 283 271 263 243 230 223 224 241 262 253 249 244 236 214 188 208 210 210 206
287 291 296 294 293 294 294 293 289 292 290 284 285 286 287 283 285 288 284 274 268 263 248 224 208 212 226 226 263 252 241 244 222 190 217 215 207 199
275 295 299 300 299 297 296 295 293 291 291 289 285 283 284 287 289 287 285 279 266 258 248 230 222 225 233 241 205 228 249 234 217 209 216 230 224 199
296 302 302 302 302 303 303 301 299 297 293 292 292 287 284 285 287 286 283 283 276 263 246 228 226 233 242 259 266 219 224 223 214 215 210 219 231 91
308 306 306 306 309 308 307 306 304 303 306 300 292 289 286 282 284 287 284 285 277 258 244 239 229 226 237 240 233 213 129 129 179 220 217 213 212 207
314 314 310 307 307 310 311 309 308 307 303 294 292 291 292 287 281 280 281 280 268 255 251 244 193 199 213 215 216 205 159 129 111 90 53 342 255 227
311 312 313 310 312 308 307 304 302 305 308 302 297 295 292 287 283 278 277 274 260 243 240 240 219 209 217 214 211 200 173 172 176 174 178 123 169 162
Height
1505 1504 1504 1504 1503 1502 1502 1502 1501 1499 1498 1498 1497 1496 1496 1495 1494 1493 1492 1491 1490 1490 1489 1489 1489 1489 1489 1489 1489 1489 1489 1489 1489 1490 1491 1492 1492 1493
1502 1501 1501 1501 1500 1499 1498 1498 1498 1497 1495 1495 1494 1493 1492 1492 1490 1489 1488 1487 1486 1485 1485 1484 1484 1484 1484 1484 1484 1484 1484 1484 1485 1485 1486 1487 1488 1489
1500 1499 1498 1498 1497 1496 1496 1495 1495 1494 1492 1491 1491 1490 1488 1487 1486 1485 1485 1484 1483 1481 1480 1480 1480 1480 1480 1480 1480 1480 1480 1480 1480 1480 1481 1482 1483 1484
1497 1496 1496 1495 1494 1493 1493 1492 1491 1491 1490 1488 1487 1486 1484 1483 1482 1481 1481 1481 1479 1477 1476 1476 1475 1475 1475 1475 1475 1475 1475 1475 1475 1475 1476 1477 1478 1480
1495 1494 1493 1492 1491 1491 1489 1489 1488 1488 1486 1485 1483 1482 1481 1480 1479 1478 1477 1476 1476 1474 1472 1471 1471 1470 1470 1470 1470 1470 1470 1470 1470 1471 1471 1472 1473 1475
1491 1491 1490 1489 1488 1487 1487 1486 1485 1484 1483 1482 1480 1479 1478 1476 1475 1474 1473 1472 1472 1471 1469 1468 1467 1466 1466 1466 1465 1465 1466 1466 1466 1466 1467 1468 1469 1470
1488 1488 1487 1486 1485 1484 1484 1483 1482 1481 1480 1479 1477 1476 1475 1473 1473 1471 1470 1469 1467 1467 1466 1465 1464 1463 1462 1461 1461 1461 1461 1461 1462 1462 1463 1464 1465 1466
1485 1484 1483 1482 1481 1480 1479 1479 1478 1477 1476 1476 1474 1472 1471 1470 1469 1468 1467 1466 1464 1463 1463 1462 1461 1460 1459 1458 1457 1457 1457 1457 1458 1458 1459 1460 1461 1462
1481 1481 1480 1480 1478 1477 1476 1475 1474 1473 1472 1472 1471 1469 1468 1467 1466 1465 1463 1462 1461 1460 1459 1458 1458 1457 1456 1454 1453 1453 1453 1454 1454 1455 1455 1456 1457 1458
1478 1477 1476 1475 1474 1473 1472 1471 1470 1469 1468 1467 1466 1465 1464 1463 1462 1461 1460 1458 1457 1456 1456 1455 1454 1454 1453 1451 1450 1449 1450 1450 1450 1451 1452 1453 1454 1455
1475 1474 1473 1472 1471 1469 1468 1467 1466 1465 1464 1463 1462 1460 1459 1458 1458 1457 1457 1456 1454 1453 1453 1452 1451 1450 1449 1448 1447 1446 1446 1446 1447 1448 1449 1450 1451 1453
1472 1471 1470 1469 1468 1466 1465 1464 1462 1461 1461 1459 1458 1456 1455 1454 1454 1453 1453 1452 1451 1450 1449 1448 1448 1447 1447 1446 1445 1444 1443 1444 1444 1445 1447 1448 1449 1450
1469 1468 1467 1465 1464 1463 1461 1460 1459 1458 1457 1456 1454 1453 1452 1451 1450 1449 1449 1448 1447 1446 1446 1445 1445 1444 1444 1443 1442 1442 1441 1442 1442 1443 1444 1445 1446 1448
1467 1466 1464 1462 1461 1459 1458 1457 1455 1454 1454 1453 1451 1450 1449 1448 1447 1446 1445 1444 1442 1442 1442 1441 1441 1441 1440 1440 1440 1440 1439 1440 1441 1441 1442 1443 1444 1445
1464 1463 1461 1459 1458 1457 1455 1454 1453 1452 1451 1450 1449 1447 1446 1445 1443 1442 1441 1440 1439 1438 1438 1438 1438 1438 1438 1437 1437 1437 1437 1438 1438 1439 1440 1441 1442 1443
1461 1460 1458 1457 1455 1454 1452 1451 1450 1449 1448 1447 1446 1444 1443 1441 1440 1439 1438 1437 1436 1435 1435 1434 1434 1434 1435 1435 1435 1435 1435 1436 1436 1437 1438 1439 1440 1441
1459 1457 1456 1455 1453 1451 1450 1448 1447 1446 1444 1443 1442 1441 1439 1438 1437 1436 1435 1434 1434 1433 1432 1431 1431 1431 1431 1432 1432 1433 1433 1434 1435 1435 1436 1437 1438 1439
1457 1456 1454 1453 1451 1449 1448 1446 1444 1443 1441 1440 1439 1437 1436 1435 1434 1434 1433 1432 1431 1430 1430 1429 1429 1429 1430 1430 1430 1431 1431 1432 1433 1434 1435 1436 1437 1438
1455 1454 1452 1451 1449 1447 1446 1444 1442 1440 1439 1437 1436 1435 1434 1433 1432 1431 1430 1429 1428 1428 1427 1427 1427 1427 1428 1428 1429 1429 1430 1430 1431 1432 1433 1434 1435 1436
1452 1451 1450 1449 1447 1445 1444 1442 1440 1438 1436 1435 1433 1432 1431 1430 1429 1428 1427 1427 1426 1425 1425 1425 1425 1426 1426 1427 1428 1428 1428 1429 1430 1431 1432 1433 1434 1435
1451 1449 1448 1447 1445 1443 1441 1439 1438 1436 1434 1432 1431 1430 1428 1427 1426 1425 1425 1424 1423 1423 1423 1423 1423 1424 1425 1426 1427 1427 1427 1428 1429 1429 1430 1432 1432 1433
1449 1448 1446 1445 1443 1441 1439 1437 1435 1434 1432 1430 1429 1428 1426 1425 1424 1423 1423 1422 1421 1421 1421 1421 1422 1423 1424 1424 1425 1425 1426 1427 1427 1428 1429 1430 1431 1432
1447 1446 1445 1443 1442 1440 1438 1436 1434 1432 1430 1429 1427 1425 1424 1423 1422 1421 1420 1419 1419 1419 1419 1419 1420 1421 1422 1422 1423 1424 1425 1426 1427 1427 1428 1428 1429 1430